Location: Bruderhein
(53.8035°N, 112.9265°W)
Time: 11:35:52
(UTC+00:00)

deb Agena D - Pass Details

Date: 12 December 2023
Orbit: 760 x 888 km, 99.8° (Epoch: 05 March)

Event Time Altitude Azimuth Distance (km) Brightness Sun altitude
Rises 11:29:08 0° 90° (E) 3,452 ? -35.5°
Reaches altitude 10° 11:33:10 10° 61° (ENE) 2,491 ? -34.9°
Maximum altitude 11:35:08 12° 40° (NE) 2,336 ? -34.6°
Drops below altitude 10° 11:37:06 10° 19° (NNE) 2,464 ? -34.3°
Enters shadow 11:38:58 - 2° (N) 2,816 ? -34.0°
